Location: Albany
(35.0170°S, 117.8920°E)
Time: 00:14:02
(UTC+08:00)

Explorer 7 - Pass Details

Date: 23 January 2021
Orbit: 484 x 677 km, 50.3° (Epoch: 01 March)

Event Time Altitude Azimuth Distance (km) Brightness Sun altitude
Rises 19:44:45 0° 236° (SW) 2,976 13.2 -5.1°
Reaches altitude 10° 19:48:49 10° 203° (SSW) 2,020 10.6 -5.8°
Maximum altitude 19:50:23 12° 183° (S) 1,899 10.0 -6.1°
Drops below altitude 10° 19:51:57 10° 162° (SSE) 1,978 9.8 -6.4°
Sets 19:55:48 0° 128° (SE) 2,823 10.2 -7.1°
